Ash Shahamah, UAE

10:39 AM +04 on May 23, 2017 (GMT +0400)
Ash Shahamah

Weather History for 41217 - May, 2013

Change the Weather History Date:

Monday, May 13, 2013

  Actual Average Record
Temperature  
Mean Temperature 92 °F -  
Max Temperature 109 °F 102 °F - ()
Min Temperature 74 °F 76 °F - ()
Cooling Degree Days 26    
Growing Degree Days 42 (Base 50)    
Moisture  
Dew Point 58 °F    
Average Humidity 37    
Maximum Humidity 78    
Minimum Humidity 4    
Precipitation  
Precipitation 0.00 in 0.00 in - ()
Sea Level Pressure  
Sea Level Pressure 29.68 in    
Wind  
Wind Speed 6 mph ()    
Max Wind Speed 18 mph    
Max Gust Speed 31 mph    
Visibility 5.1 miles    
Events      
T = Trace of Precipitation, MM = Missing Value Source: Averaged Metar Reports

Daily Weather History Graph

Daily Weather History Graph

Search for Another Location

Airport or City:

Trip Planner

Search our weather history database for the weather conditions in past years. The results will help you decide how hot, cold, wet, or windy it might be!

Date:

Astronomy

May. 13, 2013 Rise Set
Actual Time 5:39 AM +04 6:56 PM +04
Civil Twilight 5:14 AM +04 7:21 PM +04
Nautical Twilight 4:45 AM +04 7:50 PM +04
Astronomical Twilight 4:15 AM +04 8:20 PM +04
Moon 8:07 AM +04 (5/13) 9:47 PM +04 (5/13)
Length of Visible Light 14h 06m
Length of Day
13h 17m
Waxing Crescent, 10% of the Moon is Illuminated
May 13
Waxing Crescent
May 18
First Quarter
May 25
Full
May 31
Last Quarter
Jun 8
New

Hourly Weather History & Observations

Time (+04) Temp. Heat Index Dew Point Humidity Pressure Visibility Wind Dir Wind Speed Gust Speed Precip Events Conditions
12:00 AM 82.4 °F 86.3 °F 69.8 °F 66% 29.71 in - East 4.6 mph - N/A   Clear
1:00 AM 80.6 °F 83.9 °F 69.8 °F 70% 29.68 in - NNE 2.3 mph - N/A   Clear
2:00 AM 80.6 °F 83.9 °F 69.8 °F 70% 29.68 in - NW 2.3 mph - N/A   Clear
3:00 AM 80.6 °F 84.6 °F 71.6 °F 74% 29.65 in - ESE 2.3 mph - N/A   Clear
4:00 AM 77 °F - 70 °F 73% 29.67 in 6 mi South 4.6 mph - -  
4:00 AM 77.0 °F - 69.8 °F 78% 29.65 in - South 4.6 mph - N/A   Clear
5:00 AM 77.0 °F - 68.0 °F 74% 29.68 in - SSE 2.3 mph - N/A   Clear
6:00 AM 75.2 °F - 68.0 °F 78% 29.68 in 4.3 mi SSE 3.5 mph - N/A   Unknown
7:00 AM 77.0 °F - 66.2 °F 69% 29.71 in 3.7 mi SE 9.2 mph - N/A   Unknown
8:00 AM 86.0 °F 84.9 °F 57.2 °F 37% 29.71 in 5.6 mi SSE 6.9 mph - N/A   Unknown
9:00 AM 93.2 °F - 50.0 °F 23% 29.71 in - SSE 6.9 mph - N/A   Clear
10:00 AM 100 °F - 45 °F 8% 29.72 in 6 mi SSE 8.1 mph - -  
10:00 AM 100.4 °F - 44.6 °F 15% 29.71 in - SSE 8.1 mph - N/A   Clear
11:00 AM 104.0 °F - 42.8 °F 12% 29.71 in - East 5.8 mph - N/A   Clear
12:00 PM 107.6 °F - 39.2 °F 10% 29.71 in - NNW 3.5 mph - N/A   Clear
1:00 PM 108 °F - 38 °F 4% 29.68 in 6 mi SE 3.5 mph - -  
1:00 PM 107.6 °F - 39.2 °F 10% 29.68 in - SE 3.5 mph - N/A   Clear
1:28 PM 107.6 °F - 42.8 °F 11% 29.68 in 5.0 mi WNW 15.0 mph - N/A   Unknown
2:00 PM 107.6 °F - 41.0 °F 10% 29.65 in 5.6 mi WNW 13.8 mph - N/A   Unknown
2:15 PM 104.0 °F 103.4 °F 57.2 °F 21% 29.65 in 1.2 mi NW 18.4 mph 31.1 mph N/A   Widespread Dust
2:27 PM 104.0 °F - 50.0 °F 16% 29.65 in 3.7 mi NW 12.7 mph - N/A   Unknown
3:00 PM 102.2 °F 101.4 °F 57.2 °F 22% 29.65 in 5.0 mi NW 17.3 mph - N/A   Unknown
4:00 PM 99 °F - 57 °F 16% 29.65 in 5 mi NW 17.3 mph - -   Widespread Dust
4:00 PM 98.6 °F 97.6 °F 57.2 °F 25% 29.65 in 5.0 mi NW 17.3 mph - N/A   Unknown
5:00 PM 96.8 °F 95.1 °F 55.4 °F 25% 29.65 in 5.6 mi NW 15.0 mph - N/A   Unknown
6:00 PM 95.0 °F 93.7 °F 57.2 °F 28% 29.65 in 5.6 mi NW 12.7 mph - N/A   Unknown
7:00 PM 91 °F - 62 °F 28% 29.67 in 6 mi NW 13.8 mph - -   Widespread Dust
7:00 PM 91.4 °F 92.1 °F 62.6 °F 38% 29.65 in 5.6 mi NW 13.8 mph - N/A   Unknown
8:00 PM 89.6 °F 93.4 °F 68.0 °F 49% 29.68 in - NNW 8.1 mph - N/A   Clear
9:00 PM 87.8 °F 89.4 °F 64.4 °F 46% 29.68 in - NW 5.8 mph - N/A   Clear
10:00 PM 88 °F - 65 °F 37% 29.70 in 6 mi NW 5.8 mph - -  
10:00 PM 87.8 °F 90.4 °F 66.2 °F 49% 29.68 in - NW 5.8 mph - N/A   Clear
11:00 PM 89.6 °F 88.1 °F 57.2 °F 33% 29.68 in - West 9.2 mph - N/A   Clear